Temperature
25 25 24 23 22 21 24 26 27 26 25 26 26 25 24 23 22 20 19 20 20 20 20 20 20 20 20 19 19 19 19 19 19 19 19 19 19 19 18 18 19 19 18 18 18 18 18 18 18
25 25 24 23 22 22 24 26 26 26 25 26 25 25 23 21 20 19 19 20 21 20 20 20 20 20 20 19 19 19 19 19 19 19 19 19 19 18 18 18 19 19 18 18 18 18 18 18 18
25 25 24 21 22 23 25 26 26 27 26 26 26 25 23 21 19 19 20 20 21 20 20 20 20 20 19 19 19 19 19 19 19 19 19 19 19 19 18 18 18 18 18 18 18 18 18 17 17
25 25 24 22 23 25 26 26 27 26 26 26 25 24 23 22 21 21 20 21 21 20 20 20 20 20 19 19 19 19 19 19 19 19 19 19 19 19 18 18 18 18 18 18 18 18 17 17 17
25 25 22 22 24 26 27 27 27 26 26 25 24 23 22 22 22 21 21 21 21 20 20 20 20 20 20 19 19 19 19 19 19 19 19 19 19 18 18 18 18 18 18 18 18 18 17 17 17
25 22 22 23 25 27 27 28 27 26 25 24 23 22 21 21 22 21 21 21 21 21 20 20 20 20 20 19 19 19 19 19 19 19 19 19 19 19 18 18 18 18 18 18 18 18 17 17 17
24 22 23 24 25 27 28 28 26 25 25 24 24 22 21 20 21 21 21 21 21 21 20 20 20 20 20 20 19 19 19 19 19 19 18 19 19 18 18 18 18 18 18 18 18 18 18 17 17
26 22 24 24 26 27 28 28 27 26 25 24 24 22 21 20 21 21 21 21 21 21 21 20 20 20 20 20 19 19 19 19 19 19 18 19 19 19 18 18 18 18 18 18 18 18 18 17 17
27 22 22 25 26 27 28 28 27 27 26 25 24 23 22 21 21 21 20 20 20 20 20 20 20 20 20 20 19 19 19 19 18 18 18 18 19 19 18 18 18 18 18 18 18 18 18 17 17
26 22 24 26 27 27 28 28 27 26 25 24 24 23 22 21 21 21 20 20 20 20 20 20 20 20 20 20 19 19 19 19 19 18 18 18 18 18 18 18 18 18 18 18 18 18 18 18 17
26 25 26 28 29 29 28 28 28 26 24 24 24 23 22 21 21 21 21 21 21 21 20 20 20 20 20 20 19 19 19 19 19 18 18 18 18 18 18 18 18 18 18 18 18 18 18 18 18
27 27 28 29 30 29 29 29 28 27 26 26 26 24 22 22 21 21 21 21 21 21 21 20 20 20 20 20 20 19 19 19 19 19 18 18 18 18 18 18 18 18 18 18 18 18 18 18 18
26 27 29 30 30 30 30 29 28 27 27 26 25 24 23 22 22 22 22 21 21 21 21 20 20 20 20 20 19 19 19 19 19 19 18 18 18 18 18 18 18 18 18 18 18 18 18 18 18
27 27 28 29 30 30 29 28 27 26 26 25 24 23 23 23 22 22 21 21 21 21 21 20 20 20 20 20 19 19 19 19 19 19 18 18 18 18 18 18 18 18 18 18 18 18 18 18 18
28 26 26 28 29 30 29 27 27 26 25 24 24 23 23 23 23 22 22 22 21 21 21 20 20 20 20 20 19 19 19 19 19 19 19 18 18 18 18 18 18 18 18 18 18 18 18 18 18
26 26 25 27 28 29 28 26 26 26 25 24 24 23 23 23 23 23 23 22 22 21 21 20 20 20 20 20 19 19 19 19 19 19 19 19 18 18 18 18 18 18 18 18 18 18 18 18 18
24 24 25 26 28 28 27 26 26 26 25 24 24 23 23 23 23 23 23 22 22 21 21 21 20 20 20 20 19 19 19 19 19 19 19 19 19 18 18 18 18 18 18 18 18 18 18 18 18
23 24 25 26 28 28 27 26 26 26 25 24 24 24 23 23 23 23 23 22 22 21 21 21 20 20 20 20 19 19 19 19 19 19 19 19 19 19 18 18 18 18 18 18 18 18 18 18 18
24 25 25 26 28 27 26 25 25 25 25 24 24 24 23 23 23 23 23 22 22 21 21 20 20 20 20 20 19 19 19 19 19 19 19 19 19 19 18 18 18 18 18 18 18 18 18 18 18
25 24 24 25 27 27 25 25 25 25 25 25 24 24 23 23 23 22 22 22 22 21 21 20 20 20 20 20 20 19 19 19 19 19 19 19 19 19 19 18 18 18 18 18 18 18 18 18 18
24 24 24 25 26 27 26 25 24 24 25 25 24 24 23 23 23 22 22 22 22 22 21 21 20 20 20 20 20 19 19 19 19 19 19 19 19 19 19 19 18 18 18 18 18 18 18 18 18
23 25 26 26 25 24 25 23 24 23 24 24 24 24 23 23 23 23 22 22 22 22 22 21 20 20 20 20 20 19 19 19 19 19 19 19 19 19 19 19 18 18 18 18 18 18 18 18 18
24 26 26 26 25 24 24 23 22 22 23 23 23 24 24 23 23 23 23 23 22 22 21 21 20 20 20 20 20 19 19 19 19 19 19 19 18 19 19 18 18 18 18 18 18 18 18 18 18
26 26 25 23 21 22 23 23 22 21 22 23 23 24 24 23 23 23 23 22 22 22 21 21 20 20 20 19 19 19 19 19 19 19 19 19 18 18 18 18 18 18 18 18 18 18 18 18 18
26 23 21 22 20 21 22 23 21 22 23 23 23 24 24 23 23 22 22 22 22 21 21 21 20 20 20 19 19 19 19 19 19 19 19 19 19 18 18 18 18 18 18 18 18 18 18 18 18
24 21 20 21 21 21 22 22 21 22 23 24 24 24 24 23 23 22 22 22 22 21 21 20 20 20 20 19 19 19 19 19 19 19 19 19 19 19 18 18 18 18 18 18 18 18 18 18 17
25 22 21 20 21 21 21 22 22 23 23 22 23 23 23 23 23 23 22 22 22 21 21 21 20 20 20 19 19 19 19 18 18 18 18 18 18 18 18 18 18 18 18 18 18 18 18 17 17
24 23 20 20 20 21 21 21 21 22 22 22 21 22 23 23 22 22 22 22 22 22 21 21 20 20 20 19 19 19 19 18 18 18 18 18 18 18 18 18 18 18 18 18 17 17 18 17 17
25 23 20 18 19 20 20 20 22 21 21 21 21 22 22 22 22 22 22 22 22 21 21 20 20 20 20 19 19 19 19 18 18 18 18 18 18 18 18 18 18 18 18 18 17 17 17 17 17
24 23 20 20 19 18 19 20 22 21 20 21 21 22 22 22 22 22 21 21 21 21 20 20 20 20 19 19 19 19 19 18 18 18 18 18 18 18 18 18 17 17 18 17 18 17 17 17 17
Wind_Speed
4 4 2 1 4 5 2 3 8 10 7 8 11 11 9 7 6 9 7 15 16 13 14 18 19 19 19 19 20 20 20 20 20 21 21 21 21 21 21 20 20 20 19 19 19 19 19 18 18
2 2 1 3 5 4 1 5 11 12 12 13 13 12 10 9 10 13 10 15 16 14 14 17 20 20 20 19 19 20 20 20 20 20 20 20 20 20 20 20 20 19 19 19 18 18 18 17 17
3 2 3 4 3 2 1 5 13 14 11 9 7 8 7 9 12 8 12 18 15 12 14 18 20 20 20 19 19 19 19 19 19 19 19 20 20 19 19 19 19 19 18 18 17 17 16 16 15
1 3 4 4 1 3 4 6 13 16 10 9 10 8 6 7 8 15 20 18 16 11 14 18 20 20 20 19 19 19 19 19 19 19 19 19 19 19 18 18 18 17 17 16 16 15 14 13 13
3 4 5 2 1 1 3 7 11 13 7 9 12 9 6 7 21 23 20 19 17 12 13 18 20 20 19 19 19 19 18 18 18 18 18 18 18 18 18 18 17 16 15 15 14 13 12 12 12
4 4 4 1 1 1 3 7 11 16 16 14 13 9 5 15 22 21 20 17 16 14 13 17 20 20 19 18 18 18 18 18 18 18 18 18 17 17 17 17 16 15 15 14 13 12 11 10 10
3 3 1 2 1 2 4 8 12 13 14 9 11 8 8 14 18 19 18 17 15 14 12 12 16 18 18 18 18 18 17 17 17 17 17 17 17 17 16 16 15 14 14 13 12 11 10 9 10
5 4 1 2 2 2 4 6 10 14 11 13 10 10 13 17 19 19 17 15 14 12 10 10 12 13 14 16 17 17 17 17 17 17 17 16 16 16 16 14 14 13 12 11 10 9 8 8 8
3 3 2 4 4 3 7 8 5 8 12 8 6 9 17 23 23 21 17 14 12 12 9 9 9 11 12 13 15 16 16 16 16 15 16 15 13 14 13 13 13 12 11 10 9 7 6 7 7
4 4 7 6 5 5 8 11 9 7 10 8 12 15 19 22 24 22 20 18 15 14 12 10 10 10 12 12 13 12 12 13 12 12 13 12 11 11 12 13 13 12 10 9 7 5 4 5 4
4 7 6 6 5 6 7 8 6 13 9 16 23 24 22 21 21 20 19 18 17 16 15 12 11 11 9 8 10 9 10 10 11 12 12 12 10 9 10 9 9 9 8 6 4 3 2 2 2
4 8 7 5 4 4 6 7 7 10 13 19 26 27 22 22 21 20 19 18 17 16 15 14 12 10 9 10 8 8 8 8 8 11 13 11 7 7 7 6 7 6 5 4 3 2 2 2 3
6 8 8 6 5 4 6 8 9 8 15 20 23 24 21 21 18 16 18 18 17 15 16 15 13 12 10 9 7 8 7 8 10 11 12 13 8 6 6 6 7 6 6 5 4 3 2 2 3
6 8 9 6 4 2 7 6 8 10 19 22 23 21 20 20 18 16 17 16 17 17 16 15 14 13 10 9 7 7 9 10 11 11 12 14 12 9 6 5 5 6 7 7 5 4 3 2 3
5 8 10 6 3 2 7 2 8 16 20 22 22 20 18 17 17 20 20 18 17 16 15 15 15 13 12 11 9 9 10 11 9 10 13 14 13 11 8 5 5 6 8 7 5 3 3 2 3
6 4 4 7 3 2 7 5 7 17 20 19 18 18 16 15 17 18 17 16 15 15 15 16 15 13 12 10 8 7 9 9 9 11 12 14 14 13 9 5 5 8 8 6 4 2 3 2 2
4 2 4 7 5 3 6 6 8 16 19 18 18 16 15 13 13 15 17 16 16 16 15 14 12 13 11 9 7 7 7 7 9 11 11 12 14 14 10 6 6 9 6 4 4 2 3 3 2
5 4 4 7 6 2 4 7 9 14 18 19 17 15 15 16 15 16 16 16 15 14 13 12 12 11 10 8 6 5 5 5 7 8 10 13 13 13 11 7 7 8 5 4 3 3 3 3 3
5 5 8 11 8 3 6 8 10 12 14 16 16 16 17 15 12 13 15 15 14 13 12 12 13 11 10 7 6 6 5 5 5 6 11 13 13 13 10 6 5 5 5 6 6 4 3 2 2
8 8 10 12 9 3 5 7 9 11 15 17 18 17 17 13 12 14 14 14 14 15 14 13 14 13 11 8 6 5 5 4 5 5 8 11 12 12 10 7 6 6 5 5 5 4 3 2 3
10 10 10 10 9 2 4 2 4 5 6 10 13 15 17 19 19 18 17 16 15 16 16 15 14 12 11 9 6 5 3 3 3 4 6 8 11 12 10 9 7 6 6 6 6 5 6 4 3
10 10 10 8 3 4 3 3 6 5 5 9 11 12 14 16 17 17 17 17 18 16 14 12 13 12 11 11 10 9 7 7 7 5 6 6 9 11 11 10 9 7 6 6 6 6 5 5 4
10 10 7 6 3 1 1 4 6 1 4 8 12 15 15 16 18 19 18 18 16 15 15 13 13 12 11 11 11 10 8 6 4 4 6 7 7 8 10 10 8 7 7 7 6 6 6 5 5
11 5 4 3 4 1 5 5 5 5 9 9 10 14 15 16 16 14 13 12 10 12 13 13 13 13 13 12 11 11 10 8 7 7 7 6 5 6 7 9 8 8 7 8 7 7 7 6 6
6 4 3 3 3 6 5 4 7 7 7 10 12 13 14 15 15 13 13 13 12 13 13 13 13 12 12 13 12 11 11 10 10 9 9 7 6 6 8 8 7 7 7 8 7 7 7 7 7
7 11 8 6 5 4 3 3 6 5 3 3 6 8 11 12 14 14 14 14 14 14 13 13 14 12 12 12 11 9 9 8 7 8 7 8 7 8 8 8 8 8 8 8 7 7 8 7 8
7 7 10 8 3 1 3 3 5 3 2 2 4 5 7 9 11 13 13 13 13 14 13 13 13 11 11 12 10 9 9 8 8 7 6 6 6 7 8 8 9 8 8 8 8 7 7 7 8
9 9 7 6 5 3 3 2 4 4 4 2 3 4 7 9 9 10 12 11 11 11 11 11 11 11 9 10 9 9 8 8 7 6 7 7 7 7 7 8 8 8 8 8 8 7 7 7 7
5 5 6 6 6 7 4 6 6 8 7 5 5 5 7 9 9 8 9 10 9 9 10 10 10 9 9 9 8 7 7 7 6 6 6 6 6 6 7 8 8 8 9 8 8 9 8 9 9
7 8 8 6 4 5 5 7 6 5 5 5 5 5 7 7 9 8 7 8 8 8 9 8 8 8 8 8 7 7 6 5 5 5 5 5 5 5 6 7 7 8 9 9 9 10 9 9 9
Wind_Direction
250 235 186 70 50 48 57 96 100 89 65 67 80 86 88 68 107 128 132 136 132 132 133 128 124 120 117 114 111 108 108 107 107 107 108 108 109 109 110 109 108 107 107 107 107 108 108 109 110
249 224 90 48 71 58 29 104 102 102 121 105 81 81 77 71 88 111 123 135 132 131 132 130 127 123 120 118 116 113 112 112 110 110 110 110 110 110 110 110 110 109 109 108 108 110 110 110 112
262 213 87 65 88 141 144 105 118 112 115 101 93 72 75 107 113 118 135 137 129 126 130 133 129 126 124 122 120 117 116 116 115 114 113 113 113 112 113 113 112 112 111 111 111 111 110 111 113
44 49 52 70 154 210 175 138 123 112 87 80 95 77 75 111 118 131 137 135 128 126 131 134 131 129 127 125 124 123 121 119 118 117 116 116 116 117 117 116 114 114 114 113 112 111 110 110 111
73 72 51 26 285 256 171 139 129 115 102 94 94 92 70 87 121 132 137 135 132 131 134 136 134 132 131 130 129 128 126 124 123 121 120 119 119 119 118 117 116 116 115 114 112 111 112 109 105
43 64 64 317 261 246 188 140 112 106 115 110 104 99 92 128 132 139 138 137 136 136 136 139 138 136 134 132 132 131 130 129 127 125 124 122 122 122 121 120 120 119 119 118 118 117 116 109 103
116 91 188 241 226 216 169 134 124 129 131 130 125 107 123 143 141 140 137 136 136 138 137 138 141 140 138 136 135 134 134 134 132 130 129 127 126 126 125 124 124 124 124 124 125 124 120 112 107
154 100 329 281 203 185 160 142 143 140 129 132 131 133 152 157 142 135 133 133 135 139 139 138 138 139 139 140 139 139 139 139 137 136 135 133 132 132 130 130 130 130 130 131 131 128 124 118 110
126 84 249 237 201 189 155 128 126 123 127 143 133 138 148 144 138 135 134 134 141 144 145 143 141 141 140 143 145 145 145 146 144 143 141 135 131 133 135 138 137 136 136 136 135 132 126 119 111
120 168 227 219 200 180 160 142 149 128 121 111 112 126 140 143 144 145 149 151 154 156 158 156 152 152 153 152 145 147 148 148 146 146 139 137 139 142 144 147 144 144 142 141 144 143 132 120 113
190 213 247 256 221 174 159 161 144 134 143 151 146 148 150 150 150 153 157 160 162 162 162 164 163 163 163 147 151 151 150 151 152 154 151 149 147 148 146 149 147 148 149 147 150 149 132 139 132
262 267 266 262 233 172 161 156 143 156 168 160 152 153 154 156 158 161 162 164 164 166 167 169 168 167 164 156 161 160 159 163 163 166 163 154 148 148 153 154 157 160 162 162 165 174 182 198 183
265 274 282 273 253 193 143 146 142 147 147 147 149 154 158 161 162 163 163 164 165 169 169 171 170 171 166 161 169 169 170 172 171 170 170 163 157 159 162 164 172 178 176 177 179 188 190 169 164
266 292 299 289 275 186 133 141 119 146 147 150 157 163 166 165 162 160 165 166 169 171 171 171 171 170 165 167 171 169 174 172 170 171 173 170 166 163 162 165 171 179 184 185 183 178 162 146 137
299 313 315 300 276 214 114 107 152 155 154 156 164 167 168 167 166 168 171 170 169 170 169 170 170 168 167 168 171 168 173 171 171 174 174 171 168 166 166 167 171 184 185 177 166 153 131 118 125
353 344 305 295 275 239 127 201 187 159 158 159 168 172 172 172 174 172 169 169 167 166 168 170 171 169 168 166 165 162 169 171 172 173 173 172 172 169 167 167 174 180 174 163 154 145 124 125 132
358 286 269 292 266 211 150 191 185 166 161 164 170 174 175 175 176 174 172 170 169 168 168 168 164 167 165 160 157 156 160 168 172 172 172 173 173 172 169 172 176 172 163 160 168 150 144 152 154
238 252 269 268 284 240 184 187 173 168 167 170 174 174 175 181 184 176 171 169 167 166 166 165 162 166 159 151 145 142 152 168 172 173 175 174 176 175 171 172 175 168 158 165 160 153 150 155 163
239 273 279 277 278 269 211 183 179 171 171 173 176 174 178 186 181 171 168 169 165 164 168 170 167 169 161 158 159 160 167 172 176 180 179 179 179 178 174 172 170 170 171 177 167 152 162 169 141
253 266 275 286 280 242 198 194 192 179 180 181 180 177 178 173 170 173 170 170 169 172 175 176 175 173 172 172 168 164 162 172 178 181 181 183 180 179 183 173 175 176 174 175 172 159 159 179 156
254 239 247 260 298 311 143 248 227 208 172 179 186 182 177 175 177 178 177 177 174 178 179 181 178 175 174 167 156 151 139 144 170 183 186 191 186 184 186 179 174 179 178 184 186 175 166 179 194
252 244 241 251 268 276 141 203 257 211 189 182 186 187 186 185 179 180 182 181 182 184 182 179 178 175 174 170 174 175 179 189 197 189 187 190 190 189 188 182 179 182 183 186 194 185 176 167 189
233 248 243 239 211 287 5 143 268 224 195 200 190 186 186 185 181 183 186 185 184 181 178 176 178 179 177 182 184 184 191 195 181 177 184 193 196 194 193 188 184 189 192 194 197 189 188 182 182
228 252 331 36 81 257 241 164 246 221 204 202 192 185 181 180 182 183 182 174 178 177 177 177 179 183 183 184 187 189 190 187 181 185 191 198 202 203 202 194 191 193 195 198 202 200 199 199 194
202 131 30 351 15 243 253 171 237 241 211 196 187 183 179 173 174 174 170 173 179 179 180 181 181 186 187 186 191 193 193 191 191 192 196 198 203 207 207 204 198 197 199 199 198 199 208 204 200
193 150 163 186 208 266 319 221 263 270 225 167 156 170 171 170 172 172 174 177 182 183 181 180 184 187 187 190 196 196 192 193 197 198 199 202 207 211 205 204 203 202 201 203 199 203 210 208 210
175 171 170 144 160 112 295 301 320 353 11 92 122 143 166 169 170 170 174 178 178 181 180 178 182 183 185 187 191 195 195 195 200 200 198 205 212 211 204 202 204 206 206 206 200 208 212 209 212
171 163 112 123 151 214 278 264 230 247 245 215 164 160 173 163 164 168 172 174 173 175 172 172 177 182 183 186 190 197 196 196 194 195 203 207 210 211 204 206 206 209 211 209 206 211 214 209 215
170 140 124 133 153 159 210 258 223 211 206 197 182 159 159 155 159 162 167 168 161 156 159 166 172 174 180 183 187 190 193 194 189 196 206 208 209 208 207 209 208 211 213 209 208 213 212 213 218
172 174 150 154 195 159 166 254 262 208 192 166 155 150 142 146 151 155 149 139 139 148 151 155 162 171 179 177 175 184 187 189 195 203 207 203 207 212 212 209 212 217 215 210 208 215 214 212 216
Height
1489 1489 1489 1489 1492 1501 1503 1493 1485 1486 1489 1489 1488 1490 1494 1499 1505 1517 1516 1517 1520 1522 1524 1525 1526 1527 1528 1529 1530 1531 1532 1532 1533 1534 1535 1537 1538 1539 1540 1542 1543 1544 1545 1546 1548 1549 1550 1551 1552
1489 1489 1490 1490 1500 1514 1506 1491 1488 1487 1490 1490 1491 1494 1497 1504 1506 1510 1514 1519 1521 1523 1525 1527 1528 1529 1530 1531 1532 1533 1534 1535 1536 1537 1538 1539 1541 1542 1543 1544 1545 1546 1547 1549 1550 1551 1552 1553 1554
1489 1489 1491 1494 1504 1511 1505 1492 1488 1490 1490 1489 1493 1497 1501 1507 1510 1512 1516 1520 1523 1525 1527 1528 1530 1531 1532 1533 1534 1535 1537 1538 1539 1540 1541 1542 1543 1545 1546 1547 1548 1549 1550 1551 1553 1554 1555 1556 1557
1490 1491 1492 1499 1505 1497 1492 1489 1488 1490 1493 1493 1494 1501 1506 1510 1510 1513 1517 1521 1523 1526 1528 1530 1531 1533 1534 1535 1536 1537 1539 1540 1541 1542 1543 1545 1546 1547 1548 1549 1550 1551 1553 1554 1555 1556 1558 1559 1559
1490 1491 1498 1505 1500 1491 1485 1487 1486 1487 1493 1496 1496 1504 1510 1513 1513 1516 1519 1522 1524 1527 1529 1531 1533 1534 1536 1537 1538 1539 1541 1542 1543 1545 1546 1547 1548 1549 1550 1552 1553 1554 1555 1556 1557 1559 1560 1561 1562
1491 1492 1507 1511 1499 1488 1485 1487 1487 1490 1495 1498 1500 1505 1513 1514 1515 1518 1521 1524 1526 1528 1530 1533 1534 1536 1537 1538 1540 1541 1543 1544 1545 1547 1548 1549 1550 1551 1552 1554 1555 1556 1557 1558 1560 1561 1562 1564 1564
1492 1497 1504 1502 1498 1491 1485 1486 1486 1490 1493 1496 1499 1506 1514 1517 1518 1520 1523 1525 1528 1530 1531 1533 1535 1537 1538 1540 1541 1543 1544 1546 1547 1548 1550 1551 1552 1553 1554 1556 1557 1558 1559 1561 1562 1563 1565 1566 1566
1490 1496 1501 1500 1495 1491 1485 1485 1485 1487 1492 1496 1498 1503 1511 1516 1518 1521 1524 1527 1529 1531 1533 1534 1536 1538 1539 1541 1542 1544 1546 1547 1549 1550 1552 1553 1554 1555 1556 1558 1559 1560 1562 1563 1564 1566 1567 1568 1569
1489 1499 1505 1497 1491 1486 1482 1484 1489 1489 1490 1495 1497 1500 1507 1514 1518 1521 1524 1527 1529 1532 1534 1535 1537 1539 1540 1542 1544 1545 1547 1549 1550 1552 1553 1554 1556 1557 1558 1559 1561 1562 1564 1565 1566 1567 1569 1570 1571
1487 1500 1493 1483 1480 1481 1480 1481 1486 1490 1491 1494 1498 1504 1510 1514 1516 1519 1522 1525 1528 1531 1534 1536 1538 1539 1541 1543 1544 1546 1548 1549 1551 1553 1554 1555 1557 1558 1560 1561 1563 1564 1565 1567 1568 1569 1570 1571 1572
1484 1487 1480 1476 1476 1476 1479 1481 1482 1486 1491 1491 1494 1502 1508 1513 1516 1518 1521 1524 1527 1530 1533 1536 1538 1540 1541 1543 1545 1547 1548 1550 1552 1553 1555 1556 1558 1559 1561 1562 1564 1565 1567 1568 1569 1571 1572 1573 1574
1482 1478 1476 1475 1474 1474 1476 1479 1481 1482 1485 1487 1490 1496 1505 1510 1513 1516 1520 1523 1527 1530 1533 1535 1538 1540 1542 1544 1545 1547 1549 1550 1552 1554 1555 1557 1559 1560 1562 1564 1565 1567 1568 1569 1571 1572 1573 1574 1574
1479 1476 1473 1473 1472 1472 1474 1476 1479 1482 1484 1489 1493 1498 1503 1508 1512 1516 1519 1523 1526 1529 1532 1535 1537 1540 1542 1544 1546 1548 1549 1551 1553 1554 1556 1558 1559 1561 1562 1564 1566 1567 1569 1570 1571 1573 1573 1574 1575
1476 1474 1472 1470 1470 1471 1473 1476 1479 1484 1485 1489 1493 1497 1502 1506 1510 1514 1517 1521 1524 1527 1531 1534 1536 1539 1541 1544 1546 1548 1549 1551 1553 1554 1556 1558 1559 1561 1563 1564 1566 1568 1569 1571 1572 1573 1574 1575 1575
1475 1475 1472 1469 1468 1469 1473 1480 1478 1481 1485 1489 1493 1497 1501 1505 1509 1511 1514 1518 1522 1526 1529 1532 1535 1538 1540 1543 1545 1547 1549 1551 1552 1554 1556 1557 1559 1561 1563 1565 1566 1568 1569 1571 1572 1574 1575 1575 1576
1476 1480 1485 1472 1467 1468 1476 1489 1479 1481 1485 1489 1494 1498 1501 1504 1507 1510 1514 1517 1521 1524 1528 1531 1534 1537 1540 1542 1545 1547 1549 1551 1552 1554 1555 1557 1559 1561 1563 1564 1566 1567 1569 1571 1572 1573 1575 1576 1576
1486 1492 1488 1478 1466 1467 1474 1483 1477 1481 1483 1487 1491 1496 1500 1503 1507 1509 1512 1516 1519 1523 1526 1529 1532 1535 1538 1541 1544 1546 1548 1550 1552 1553 1555 1556 1558 1560 1562 1563 1565 1566 1568 1570 1571 1573 1574 1575 1576
1496 1491 1487 1483 1468 1468 1474 1478 1476 1479 1482 1485 1488 1493 1497 1500 1502 1507 1511 1515 1518 1522 1525 1528 1531 1534 1537 1540 1543 1545 1547 1549 1551 1552 1554 1555 1557 1559 1561 1562 1564 1565 1567 1569 1570 1572 1573 1575 1576
1483 1486 1488 1478 1467 1471 1475 1477 1475 1477 1481 1484 1487 1489 1493 1496 1501 1505 1509 1513 1517 1520 1522 1526 1529 1532 1535 1537 1540 1542 1544 1547 1549 1551 1552 1554 1555 1557 1559 1561 1563 1564 1566 1567 1569 1570 1572 1573 1575
1480 1486 1486 1476 1466 1470 1475 1476 1473 1473 1476 1479 1481 1484 1488 1493 1499 1503 1507 1510 1513 1516 1519 1523 1526 1529 1532 1535 1538 1541 1543 1545 1547 1549 1551 1553 1554 1556 1557 1559 1561 1563 1564 1566 1567 1568 1570 1572 1573
1479 1483 1483 1480 1469 1467 1474 1482 1478 1474 1474 1478 1479 1481 1484 1487 1492 1497 1501 1505 1508 1511 1515 1518 1522 1526 1530 1533 1536 1539 1541 1543 1545 1546 1548 1550 1552 1554 1555 1557 1559 1560 1562 1564 1565 1567 1568 1569 1571
1482 1470 1471 1473 1480 1486 1479 1500 1483 1477 1476 1477 1478 1480 1483 1485 1488 1492 1496 1500 1503 1507 1511 1515 1520 1523 1526 1530 1532 1534 1536 1538 1540 1543 1545 1547 1549 1551 1553 1554 1556 1558 1559 1561 1563 1564 1566 1567 1568
1470 1462 1466 1469 1477 1485 1483 1496 1492 1478 1479 1477 1475 1476 1478 1481 1484 1488 1491 1495 1500 1504 1508 1513 1516 1520 1523 1526 1529 1531 1533 1536 1538 1541 1543 1545 1547 1548 1550 1551 1553 1554 1556 1558 1560 1561 1563 1564 1565
1458 1463 1468 1475 1486 1500 1488 1494 1496 1483 1475 1471 1471 1472 1474 1478 1481 1485 1489 1494 1499 1502 1506 1509 1513 1516 1520 1523 1526 1528 1530 1533 1535 1537 1539 1541 1543 1545 1546 1548 1549 1551 1552 1554 1555 1557 1559 1560 1562
1459 1479 1500 1502 1511 1507 1486 1489 1490 1471 1465 1464 1466 1468 1471 1475 1479 1483 1487 1491 1495 1499 1502 1505 1509 1513 1516 1519 1522 1525 1527 1530 1532 1534 1536 1538 1539 1540 1542 1544 1545 1547 1549 1550 1552 1553 1555 1556 1558
1460 1475 1501 1511 1512 1504 1487 1491 1480 1464 1461 1461 1463 1467 1470 1473 1477 1480 1483 1487 1491 1494 1498 1501 1505 1509 1512 1515 1518 1522 1524 1526 1529 1531 1533 1534 1535 1537 1538 1540 1541 1543 1545 1546 1548 1549 1550 1552 1554
1457 1469 1471 1491 1494 1503 1497 1485 1472 1462 1462 1463 1464 1467 1470 1473 1475 1477 1481 1485 1488 1491 1494 1498 1502 1506 1509 1512 1516 1518 1520 1523 1525 1527 1529 1531 1532 1533 1534 1535 1537 1539 1540 1542 1543 1544 1546 1547 1549
1446 1455 1476 1491 1505 1510 1500 1492 1486 1471 1467 1464 1464 1466 1469 1472 1475 1477 1480 1483 1486 1490 1493 1497 1501 1504 1508 1511 1513 1515 1517 1520 1522 1524 1525 1526 1528 1529 1530 1531 1532 1534 1535 1537 1538 1540 1541 1542 1544
1449 1457 1470 1486 1491 1506 1510 1498 1468 1466 1463 1463 1463 1464 1467 1470 1473 1476 1479 1482 1486 1490 1493 1496 1500 1503 1505 1508 1511 1513 1515 1517 1518 1520 1521 1522 1524 1525 1525 1526 1528 1529 1531 1532 1533 1535 1536 1538 1539
1442 1452 1465 1484 1491 1494 1501 1493 1459 1459 1459 1460 1462 1464 1467 1470 1473 1476 1479 1482 1486 1489 1492 1495 1498 1501 1503 1506 1508 1510 1512 1514 1515 1517 1518 1519 1519 1520 1521 1522 1523 1524 1526 1527 1529 1530 1531 1533 1534